{"data":{"norad_id":42738,"epoch":"2026-05-24T14:13:41.801952Z","epoch_age_seconds":100390,"freshness":"FRESH","line1":"1 42738U 17028A   26144.59284493 -.00000234  00000+0  00000+0 0  9991","line2":"2 42738  39.4639 243.5025 0760699 269.0109  83.6451  1.00289926  7398","mean_motion":1.00289926,"eccentricity":0.0760699,"inclination_deg":39.4639,"raan_deg":243.5025,"arg_perigee_deg":269.0109,"mean_anomaly_deg":83.6451,"bstar":0,"rev_number":739,"period_min":1435.8371348285,"perigee_km":32574.430004454,"apogee_km":38988.590289463,"semimajor_km":42159.647146959,"source":"CELESTRAK","updated_at":"2026-05-25T13:38:24.343135Z"}}